501P/Rankin (2010)

Japanese version
Home page
Updated on June 14, 2025

---------------------------------------------------------------------

* Profile

* Orbital Elements

                    Epoch = 2010 Nov. 20.0 TT
     T = 2010 Dec.  1.68811 TT        Peri. =  52.57681
     e = 0.6950357                    Node  = 140.75869 2000.0
     q = 0.6810438 AU                 Incl. =  10.14109
       a =  2.2331920 AU   n = 0.29533503   P =   3.34 years

* Magnitudes Graph

        H = 19.5  G = 0.15

---------------------------------------------------------------------

The orbital elements are printed on CBET 5520.
The magnitudes graphs are made with Comet for Windows.

---------------------------------------------------------------------

Copyright(C) Seiichi Yoshida (comet@aerith.net). All rights reserved.